Regional Weather Roundup
Issued by NWS Kansas City/Pleasant Hill, MO

Home | Current Version | Previous Version | Graphics & Text | Print | Product List | Glossary Off
Versions: 1 2 3 4 5 6 7 8 9 10 11 12 13 14 15 16 17 18 19 20 21 22 23 24 25 26 27 28

000
ASUS43 KEAX 212010
RWREAX

WEATHER ROUNDUP FOR EASTERN KANSAS AND NORTHWEST MISSOURI
NATIONAL WEATHER SERVICE KANSAS CITY/PLEASANT HILL MO
300 PM CDT MON AUG 21 2017

KSZ040-057-103>105-MOZ028-029-037-043-212100-
...KANSAS CITY METROPOLITAN AREA...

CITY           SKY/WX    TMP DP  RH WIND       PRES   REMARKS
K.C. INTL      TSTM      73  70  90 S26G38    30.02F
K.C. DOWNTOWN  TSTM      77  72  84 N13G20    30.03R
LEES SUMMIT    CLOUDY    79  74  84 E8        30.02F
OLATHE - IXD   MOSUNNY   87  77  72 S13       30.01F HX  99
OLATHE - OJC   PTSUNNY   83  77  82 S13       30.01F HX  92
LAWRENCE       CLOUDY    81  76  84 NE6G16    29.99F

$$

MOZ001>008-011>017-020>025-030>033-038>040-044>046-053-054-212100-
...NORTHERN AND CENTRAL MISSOURI...

CITY           SKY/WX    TMP DP  RH WIND       PRES   REMARKS
ST. JOSEPH     MOSUNNY   81  75  82 SE8       29.97F
WARRENSBURG    SUNNY     86  73  66 E7        30.02F HX  93
WHITEMAN AFB   PTSUNNY   85  83  91 SE6       30.02F HX 104
CLINTON        SUNNY     88  77  70 S10       30.04F HX 100
SEDALIA        SUNNY     87  79  76 SE5       30.05F HX 101
WARSAW         NOT AVBL
CHILLICOTHE      N/A     76  74  93 S6        30.04R
KIRKSVILLE     CLOUDY    77  32  19 SE8       30.04F

$$

MOZ041-047>049-056>058-063>065-088>090-097-212100-
...EASTERN AND SOUTHERN MISSOURI...

CITY           SKY/WX    TMP DP  RH WIND       PRES   REMARKS
ST. LOUIS INTL PTSUNNY   88  77  69 NE7       30.05F HX 100
SPIRIT OF STL  MOSUNNY   93  77  59 W8        30.03F HX 107
COLUMBIA       CLOUDY    87  76  69 NW7       30.06F HX  97
JEFFERSON CITY MOSUNNY   90  76  63 S7        30.03F HX 101
ROLLA          MOSUNNY   89  75  63 S6        30.09F HX  99
OSAGE BEACH    SUNNY     90  74  59 SW8       30.07F HX  99
SPRINGFIELD    SUNNY     88  74  63 S9        30.09F HX  96
BRANSON        MOSUNNY   90  72  55 S5        30.12S HX  96
JOPLIN         SUNNY     91  76  61 SW15      30.07F HX 103
WEST PLAINS    SUNNY     88  72  58 S8        30.13F HX  94

$$

IAZ060-094-KSZ022-034>040-054-083-096-NEZ052-066-093-212100-
...KANSAS...SOUTHEAST NEBRASKA AND IOWA...

CITY           SKY/WX    TMP DP  RH WIND       PRES   REMARKS
TOPEKA         CLOUDY    85  80  85 SE7       29.97F HX  99
MANHATTAN      CLOUDY    84  74  71 N3        29.96F HX  91
EMPORIA        CLOUDY    90  73  57 S20G25    29.99F HX  98
CHANUTE        SUNNY     91  76  61 S15       30.03F HX 103
WICHITA        PTSUNNY   92  71  50 S17       30.00S HX  98
OMAHA          CLOUDY    79  69  71 S20G28    29.96R
LINCOLN        PTSUNNY   84  71  65 S22G28    29.94F
FALLS CITY     CLOUDY    83  71  67 S7        29.95F
LAMONI         CLOUDY    79  71  76 S7        29.98F
DES MOINES     CLOUDY    78  68  71 S14       29.95F

$$





USA.gov is the U.S. government's official web portal to all federal, state and local government web resources and services.